Date String (YYYY-MM-DD hh:mm:ss) UTC,Instrument flags,absolute air pressure of the measurement (hPa),sample flow rate (lpm),inlet stack bypass flow (lpm),air temperature of the measurement (°C),ambient temperature measured by the external sensor (°C),aerosol sample conditioner tube jacket temperature (°C),OPC LED temperature (°C),internal box temperature (°C),relative humidity of the measurement (%),span deviation,mass concentration of particles derived from Lorenz-Mie calculation of OPC scattering (μg/m³),mass concentration of particles derived from Lorenz-Mie calculation of OPC scattering (μg/m³),mass concentration of particles derived from Lorenz-Mie calculation of OPC scattering (μg/m³)
DateTimeUTC,F1_M11,P_M11,Q1_M11,Q2_M11,T1_M11,T2_M11,T3_M11,T4_M11,T5_M11,U1_M11,ZSPAN_M11,X0_M11,X2_M11,X1_M11
2024-05-21 02:00:00,SystemResetWarning,0821.6,5.01,000.00,031.1,030.4,000.0,039.5,032.8,019.6,0000.0,0019.58,0004.61,0003.22
2024-05-21 02:01:00,SystemResetWarning,0821.8,5.00,000.00,031.1,030.4,000.0,039.5,032.8,019.6,0000.0,0019.26,0004.57,0003.20
2024-05-21 02:02:00,SystemResetWarning,0821.7,4.99,000.00,031.1,030.4,000.0,039.6,032.8,019.5,0000.0,0018.08,0004.51,0003.18
2024-05-21 02:03:00,SystemResetWarning,0821.8,5.00,000.00,031.1,030.4,000.0,039.6,032.8,019.5,0000.0,0017.87,0004.48,0003.16
2024-05-21 02:04:00,SystemResetWarning,0821.7,5.01,000.00,031.1,030.4,000.0,039.6,032.8,019.5,0000.0,0017.47,0004.47,0003.15
2024-05-21 02:05:00,SystemResetWarning,0821.7,5.01,000.00,031.1,030.4,000.0,039.6,032.8,019.5,0000.0,0016.53,0004.41,0003.12
2024-05-21 02:06:00,SystemResetWarning,0821.7,5.00,000.00,031.1,030.4,000.0,039.6,032.8,019.5,0000.0,0016.12,0004.32,0003.11
2024-05-21 02:07:00,SystemResetWarning,0821.8,5.00,000.00,031.1,030.3,000.0,039.6,032.8,019.5,0000.0,0015.51,0004.29,0003.10
2024-05-21 02:08:00,SystemResetWarning,0821.9,4.99,000.00,031.1,030.3,000.0,039.6,032.7,019.5,0000.0,0014.94,0004.26,0003.09
2024-05-21 02:09:00,SystemResetWarning,0822.0,4.99,000.00,031.1,030.3,000.0,039.6,032.7,019.5,0000.0,0014.45,0004.24,0003.10
2024-05-21 02:10:00,SystemResetWarning,0821.9,5.00,000.00,031.1,030.3,000.0,039.6,032.7,019.5,0000.0,0013.27,0004.21,0003.10
2024-05-21 02:11:00,SystemResetWarning,0822.0,5.00,000.00,031.1,030.3,000.0,039.6,032.7,019.4,0000.0,0012.17,0004.17,0003.08
2024-05-21 02:12:00,SystemResetWarning,0821.9,5.00,000.00,031.1,030.3,000.0,039.6,032.7,019.3,0000.0,0012.42,0004.09,0003.07
2024-05-21 02:13:00,SystemResetWarning,0822.0,5.00,000.00,031.1,030.3,000.0,039.6,032.7,019.3,0000.0,0012.70,0004.02,0003.06
2024-05-21 02:14:00,SystemResetWarning,0822.0,5.01,000.00,031.1,030.3,000.0,039.6,032.7,019.2,0000.0,0012.74,0003.97,0003.05
2024-05-21 02:15:00,SystemResetWarning,0822.1,5.01,000.00,031.1,030.2,000.0,039.6,032.7,019.2,0000.0,0013.42,0003.95,0003.04
2024-05-21 02:16:00,SystemResetWarning,0822.3,5.00,000.00,031.1,030.2,000.0,039.5,032.7,019.2,0000.0,0013.65,0003.90,0003.01
2024-05-21 02:17:00,SystemResetWarning,0822.4,5.01,000.00,031.0,030.2,000.0,039.5,032.7,019.2,0000.0,0013.38,0003.86,0002.97
2024-05-21 02:18:00,SystemResetWarning,0822.4,4.99,000.00,031.0,030.2,000.0,039.5,032.7,019.2,0000.0,0012.71,0003.86,0002.93
2024-05-21 02:19:00,SystemResetWarning,0822.5,5.00,000.00,031.0,030.2,000.0,039.5,032.7,019.1,0000.0,0012.56,0003.85,0002.91
2024-05-21 02:20:00,SystemResetWarning,0823.0,4.99,000.00,031.0,030.2,000.0,039.5,032.6,019.1,0000.0,0012.50,0003.85,0002.88
2024-05-21 02:21:00,SystemResetWarning,0822.9,4.99,000.00,031.0,030.2,000.0,039.5,032.7,019.1,0000.0,0012.55,0003.83,0002.83
2024-05-21 02:22:00,SystemResetWarning,0822.9,5.00,000.00,031.0,030.2,000.0,039.5,032.7,019.1,0000.0,0012.18,0003.73,0002.80
2024-05-21 02:23:00,SystemResetWarning,0822.9,5.01,000.00,031.0,030.2,000.0,039.5,032.7,019.1,0000.0,0011.64,0003.78,0002.79
2024-05-21 02:24:00,SystemResetWarning,0823.0,5.00,000.00,031.0,030.2,000.0,039.5,032.6,019.0,0000.0,0011.20,0003.79,0002.77
2024-05-21 02:25:00,SystemResetWarning,0822.8,5.01,000.00,031.0,030.2,000.0,039.5,032.6,019.0,0000.0,0011.03,0003.80,0002.75
2024-05-21 02:26:00,SystemResetWarning,0822.7,5.00,000.00,031.0,030.2,000.0,039.5,032.6,019.1,0000.0,0011.02,0003.81,0002.73
2024-05-21 02:27:00,SystemResetWarning,0823.0,4.98,000.00,031.0,030.2,000.0,039.5,032.6,019.1,0000.0,0011.53,0003.85,0002.73
2024-05-21 02:28:00,SystemResetWarning,0822.8,4.99,000.00,031.0,030.2,000.0,039.5,032.6,019.1,0000.0,0012.13,0003.86,0002.74
2024-05-21 02:29:00,SystemResetWarning,0822.7,5.01,000.00,031.0,030.1,000.0,039.5,032.6,019.1,0000.0,0012.14,0003.86,0002.76
2024-05-21 02:30:00,SystemResetWarning,0822.7,5.00,000.00,031.0,030.1,000.0,039.5,032.6,019.1,0000.0,0012.03,0003.85,0002.75
2024-05-21 02:31:00,SystemResetWarning,0822.6,5.00,000.00,030.9,030.1,000.0,039.5,032.6,019.1,0000.0,0012.39,0003.87,0002.77
2024-05-21 02:32:00,SystemResetWarning,0822.6,5.01,000.00,030.9,030.1,000.0,039.5,032.6,019.1,0000.0,0012.31,0003.86,0002.79
2024-05-21 02:33:00,SystemResetWarning,0822.7,5.00,000.00,030.9,030.1,000.0,039.4,032.6,019.2,0000.0,0012.69,0003.87,0002.80
2024-05-21 02:34:00,SystemResetWarning,0822.7,4.99,000.00,030.9,030.1,000.0,039.4,032.6,019.2,0000.0,0012.96,0003.82,0002.80
2024-05-21 02:35:00,SystemResetWarning,0822.7,5.00,000.00,030.9,030.1,000.0,039.4,032.5,019.2,0000.0,0012.77,0003.80,0002.82
2024-05-21 02:36:00,SystemResetWarning,0822.7,5.00,000.00,030.9,030.1,000.0,039.4,032.5,019.1,0000.0,0012.65,0003.78,0002.84
2024-05-21 02:37:00,SystemResetWarning,0822.9,4.99,000.00,030.9,030.0,000.0,039.4,032.5,019.1,0000.0,0011.85,0003.73,0002.86
2024-05-21 02:38:00,SystemResetWarning,0822.6,5.01,000.00,030.9,030.0,000.0,039.4,032.5,019.1,0000.0,0011.03,0003.68,0002.86
2024-05-21 02:39:00,SystemResetWarning,0822.6,5.00,000.00,030.9,030.0,000.0,039.4,032.5,019.2,0000.0,0011.49,0003.68,0002.86
2024-05-21 02:40:00,SystemResetWarning,0822.6,5.00,000.00,030.9,030.0,000.0,039.4,032.5,019.2,0000.0,0011.87,0003.68,0002.86
2024-05-21 02:41:00,SystemResetWarning,0822.7,5.01,000.00,030.8,030.0,000.0,039.4,032.5,019.2,0000.0,0011.70,0003.68,0002.88
2024-05-21 02:42:00,SystemResetWarning,0822.7,5.00,000.00,030.8,030.0,000.0,039.4,032.5,019.2,0000.0,0012.25,0003.67,0002.86
2024-05-21 02:43:00,SystemResetWarning,0823.0,5.01,000.00,030.8,030.0,000.0,039.4,032.5,019.2,0000.0,0012.29,0003.64,0002.86
2024-05-21 02:44:00,SystemResetWarning,0823.0,4.99,000.00,030.8,030.0,000.0,039.4,032.5,019.3,0000.0,0012.13,0003.63,0002.86
2024-05-21 02:45:00,SystemResetWarning,0823.1,4.98,000.00,030.8,029.9,000.0,039.3,032.5,019.3,0000.0,0012.53,0003.64,0002.85
2024-05-21 02:46:00,SystemResetWarning,0822.9,5.01,000.00,030.8,029.9,000.0,039.3,032.5,019.2,0000.0,0013.08,0003.63,0002.83
2024-05-21 02:47:00,SystemResetWarning,0823.1,5.00,000.00,030.8,029.9,000.0,039.3,032.5,019.2,0000.0,0013.28,0003.62,0002.80
2024-05-21 02:48:00,SystemResetWarning,0822.9,5.00,000.00,030.8,029.9,000.0,039.3,032.4,019.3,0000.0,0013.50,0003.63,0002.77
2024-05-21 02:49:00,SystemResetWarning,0823.0,5.00,000.00,030.8,029.9,000.0,039.3,032.4,019.3,0000.0,0014.01,0003.66,0002.76
2024-05-21 02:50:00,SystemResetWarning,0822.9,4.99,000.00,030.8,029.9,000.0,039.3,032.4,019.3,0000.0,0012.92,0003.65,0002.75
2024-05-21 02:51:00,SystemResetWarning,0823.0,4.99,000.00,030.8,029.9,000.0,039.3,032.4,019.4,0000.0,0012.05,0003.67,0002.73
2024-05-21 02:52:00,SystemResetWarning,0823.0,5.00,000.00,030.8,029.9,000.0,039.3,032.4,019.4,0000.0,0011.87,0003.67,0002.73
2024-05-21 02:53:00,SystemResetWarning,0823.1,5.00,000.00,030.8,029.9,000.0,039.3,032.4,019.5,0000.0,0011.32,0003.68,0002.72
2024-05-21 02:54:00,SystemResetWarning,0823.0,5.00,000.00,030.8,029.9,000.0,039.3,032.4,019.5,0000.0,0010.88,0003.66,0002.71
2024-05-21 02:55:00,SystemResetWarning,0823.0,5.00,000.00,030.7,029.9,000.0,039.2,032.4,019.5,0000.0,0012.14,0003.67,0002.70
2024-05-21 02:56:00,SystemResetWarning,0822.9,5.02,000.00,030.7,029.9,000.0,039.2,032.4,019.4,0000.0,0011.20,0003.66,0002.72
2024-05-21 02:57:00,SystemResetWarning,0822.9,5.01,000.00,030.7,029.9,000.0,039.2,032.4,019.4,0000.0,0010.91,0003.70,0002.76
2024-05-21 02:58:00,SystemResetWarning,0823.0,4.99,000.00,030.7,029.9,000.0,039.2,032.4,019.4,0000.0,0011.42,0003.72,0002.79
2024-05-21 02:59:00,SystemResetWarning,0823.0,4.99,000.00,030.7,029.9,000.0,039.2,032.4,019.4,0000.0,0011.57,0003.77,0002.83
